www.pogodaiklimat.ru

Погода и климат >> Архив погоды >> Китай >> Ejin Qi


ПОГОДА в Ejin Qi

  • Прогноз погоды в Ejin Qi
  • Монитор погоды в Ejin Qi
  • Климат города

АРХИВ ПОГОДЫ в Ejin Qi

Время (UTC), дата Ветер
(напр.,м/с)
 
Видим.   Явления Облачность Т
(С)
Тd
(С)
f
(%)
Тe
(С)
Тes
(С)
Комфортность P
(гПа)
Po
(гПа)
Тmin
(С)
Tmax
(С)
R
(мм)
R24
(мм)
S
(см)
15 8.12 штиль 0 8000 м ?/? -8.7 -19.0 43 -9 -9 1031.8 875.5
18 8.12 В 1 18 км ?/? -11.1 -19.7 49 -13 -13 1029.6 913.4 -0.5
21 8.12 З 2 30 км ?/? -11.4 -20.7 46 -16 -16 1028.5 1029.0
00 9.12 З 1 30 км ясно -13.4 -22.8 45 -16 -16 1031.6 914.1
03 9.12 З 3 30 км ясно -7.5 -19.1 39 -13 -11 1032.6 876.4
06 9.12 З 3 30 км ясно -1.4 -18.9 25 -5 -2 1032.1 915.8 -13.5
09 9.12 З 2 30 км ясно +0.5 -19.3 21 -2 -1 1031.8 1032.0
12 9.12 З 2 30 км ясно -2.9 -19.3 27 -6 -6 1033.9 916.6
15 9.12 ЮЗ 1 30 км ?/? -5.9 -19.6 33 -7 -7 1033.9 878.4
18 9.12 штиль 0 30 км н/о -8.9 -17.9 48 -9 -9 1033.4 917.4 +0.9
21 9.12 З 1 30 км ?/? -9.4 -19.7 43 -11 -11 1033.1 1033.0
00 10.12 В 1 22 км ясно -13.1 -19.6 58 -15 -15 1035.6 918.2
03 10.12 В 1 13 км ясно -6.7 -18.1 40 -8 -6 1034.9 879.1
06 10.12 В 1 30 км ясно +0.2 -17.1 26 -1 +4 1032.1 916.6 -13.7
09 10.12 В 2 30 км 9/9
[]
+0.4 -17.3 25 -2 -2 1030.8 1031.0
12 10.12 Ю 1 21 км 6/6
[]
-2.9 -17.3 32 -4 -4 1032.9 915.8
15 10.12 З 1 23 км ?/? -5.7 -17.1 40 -7 -7 1032.8 877.9
18 10.12 СЗ 1 30 км н/о -6.5 -18.2 39 -8 -8 1031.7 916.7 +2.3
21 10.12 ЮЗ 1 30 км ?/? -6.3 -16.8 43 -8 -8 1031.0 1031.0
00 11.12 З 2 30 км 3/3
[]
-6.5 -18.5 38 -10 -10 1031.9 916.3
03 11.12 Ю 1 30 км 9/9
[]
-3.1 -17.5 32 -4 -4 1031.1 876.9
06 11.12 З 3 30 км 3/3
[]
+0.9 -19.0 21 -2 -0 1028.0 913.6 -7.6
09 11.12 З 1 30 км ясно +0.9 -19.0 21 0 +1 1027.1 1027.0
12 11.12 ЮЗ 1 10 км ясно -3.6 -18.7 30 -5 -5 1027.9 912.6
15 11.12 З 2 30 км ?/? -5.7 -20.1 31 -9 -9 1027.3 1027.0
18 11.12 З 1 30 км н/о -7.0 -19.6 36 -9 -9 1026.2 911.9 +1.4
21 11.12 З 1 30 км ?/? -9.8 -20.6 41 -12 -12 1026.6 1027.0
00 12.12 З 1 27 км 9/9
[]
-11.6 -20.9 46 -14 -14 1028.4 912.0
03 12.12 З 1 25 км 3/3
[]
-5.9 -17.6 39 -8 -6 1028.8 873.3
06 12.12 В 1 25 км 5/5
[]
-2.3 -17.1 31 -3 -1 1026.5 911.5 -11.6
09 12.12 В 1 30 км 3/3
[]
-0.8 -16.6 29 -2 -2 1026.7 1027.0
12 12.12 В 2 30 км ясно -4.6 -16.8 38 -8 -8 1029.4 912.7
15 12.12 В 2 16 км ?/? -5.7 -16.6 42 -9 -9 1028.8 874.5
18 12.12 В 4 29 км н/о -6.8 -18.7 38 -13 -13 1028.3 913.1 +0.4
21 12.12 В 4 23 км ?/? -8.3 -20.1 38 -15 -15 1029.0 1029.0
00 13.12 В 2 30 км 9/9
[]
-8.9 -18.7 45 -13 -13 1031.9 915.4
03 13.12 В 4 30 км 9/9
[]
-7.2 -19.4 37 -13 -13 1033.4 1033.0
06 13.12 В 2 30 км 9/9
[]
-5.1 -19.2 32 -8 -8 1032.3 1072.0 -8.9
09 13.12 З 1 30 км 9/9
[]
-4.4 -18.6 32 -6 -6 1032.9 1033.0
12 13.12 Ю 2 30 км 10/10
[]
-5.2 -18.6 34 -9 -9 1033.7 916.9
15 13.12 З 1 30 км ?/? -7.1 -19.3 37 -9 -9 1034.2 877.8
18 13.12 С 1 17 км н/о -10.3 -19.0 49 -12 -12 1033.4 916.4 -4.3
21 13.12 ЮЗ 1 30 км ?/? -10.3 -19.5 47 -12 -12 1033.0 1033.0
00 14.12 З 2 30 км 4/4
[]
-11.5 -20.8 46 -16 -16 1035.0 917.5
03 14.12 З 3 17 км ясно -7.6 -14.0 60 -13 -11 1036.4 878.8
06 14.12 С 2 28 км ясно -2.4 -16.1 34 -5 -2 1034.9 918.3 -12.2
09 14.12 С 1 30 км 5/5
[]
-2.0 -16.5 32 -3 -3 1037.1 1037.0
12 14.12 З 2 21 км 9/9
[]
-4.8 -17.3 37 -8 -8 1041.0 922.9
15 14.12 СЗ 1 30 км ?/? -9.1 -20.2 40 -11 -11 1043.0 1043.0
18 14.12 С 1 30 км ?/? -11.2 -19.8 49 -13 -13 1043.6 925.8 -1.1
21 14.12 З 1 30 км ?/? -14.1 -20.4 59 -17 -17 1044.5 1045.0
00 15.12 З 2 20 км 9/9
[]
-14.0 -18.8 67 -19 -19 1046.1 926.9
03 15.12 С 1 27 км 6/6
[]
-11.3 -19.4 51 -13 -13 1049.2 1049.0
06 15.12 З 1 30 км ясно -5.6 -23.5 23 -7 -3 1048.5 929.5 -14.9
09 15.12 З 2 30 км ясно -4.3 -23.9 20 -7 -7 1050.0 1050.0
12 15.12 ЮЗ 1 н/о ясно -8.7 -22.4 32 -11 -11 1053.4 932.6

 

Местоположение метеостанции Ejin Qi (Китай): широта 41.95 долгота 101.06 высота над уровнем моря 941 м.

В архиве по умолчанию представлена погода в Ejin Qi за последнюю неделю. Архивные данные за месяц целиком и за предыдущие месяцы, начиная с января 2011 года, Вы можете получить, выбрав интересующий диапазон дат из раскрывающегося списка и нажав кнопку "Ввод!".

Внимание! Время в таблицах - всемирное. Для получения местного времени необходимо прибавить поправку, которая в Ejin Qi равна 8 ч.

Смотрите также архив погоды в соседних городах и на ближайших метеорологических станциях:

Погода в Guaizihu (Китай) (126 км)
Погода в Shine Usa (Монголия) (127 км)
Погода в Bogd (Монголия) (313 км)
Погода в Bayan Mod (Китай) (317 км)
Погода в Jiuquan (Китай) (325 км)
Погода в Dalanzadgad (Монголия) (328 км)
Погода в Mazong Shan (Китай) (334 км)
Погода в Zhangye (Китай) (340 км)
Погода в Amarbuyantayn (Монголия) (353 км)
Погода в Yumen Zhen (Китай) (386 км)

Пояснения к столбцам:

Ветер - указаны скорость ветра в м/с - средняя за 10 мин, порывы в срок и между сроками (в фигурных скобках) и направление, откуда дует ветер: С - северный, СВ - северо-восточный, В - восточный, ЮВ - юго-восточный, Ю - южный, ЮЗ - юго-западный, З - западный, СЗ - северо-западный.
Видимость - горизонтальная дальность видимости в метрах или километрах. При видимости от 1 до 10 км при отсутствии осадков обычно наблюдается дымка, при ухудшении видимости до 1 км и менее - туман. В сухую погоду видимость может ухудшаться дымом, пылью или мглою.
Явления - указаны атмосферные явления, наблюдавшиеся в срок или в последний час перед сроком; фигурными скобками обозначены явления, наблюдавшиеся между сроками (за 1-3 часа до срока); квадратными скобками обозначены град или гололедные отложения с указанием их диаметра в мм.
Облачность - указаны через наклонную черту общая и нижняя облачность в баллах и высота нижней границы облаков в метрах; квадратными скобками обозначены формы облаков: Ci - перистые, Cs - перисто-слоистые, Cc - перисто-кучевые, Ac - высококучевые, As - высокослоистые, Sc - слоисто-кучевые, Ns - слоисто-дождевые, Cu - кучевые, Cb - кучево-дождевые. Подробнее классификацию облаков см. в Атласе облаков (PDF).
T - Температура воздуха - температура, измеренная на высоте 2 м над землей.
Td - Температура точки росы - температура, при понижении до которой содержащийся в воздухе водяной пар достигнет насыщения.
f - Относительная влажность воздуха - влажноcть воздуха, измеренная на высоте 2 м над землей.
Te - Эффективная температура - температура, которую ощущает одетый по сезону человек в тени. Характеристика душности погоды. При расчете учитывается влияние влажности воздуха и скорости ветра на теплоощущения человека.
Tes - Эффективная температура на солнце - температура, которую ощущает человек, с поправкой на солнечный нагрев. Характеристика знойности погоды. Зависит от высоты солнца над горизонтом, облачности и скорости ветра. Ночью, в пасмурную погоду, а также при ветре 12 м/с и более поправка равна нулю.
P - Атмосферное давление - приведенное к уровню моря атмосферное давление.
Po - Атмосферное давление - измеренное на уровне метеостанции атмосферное давление.
Tmin - Минимальная температура - минимум температуры воздуха на высоте 2 м над землей.
Tmax - Максимальная температура - максимум температуры воздуха на высоте 2 м над землей.
R - Количество осадков - Количество выпавших осадков за период времени, мм. При наведении курсора мыши на число - период времени, за который выпало указанное количество осадков.
R24 - Количество осадков - Количество выпавших осадков за 24 часа, мм.
S - Снежный покров - Высота снежного покрова, см. При наведении курсора мыши на число - состояние снежного покрова и степень покрытия местности в баллах.